Back to catalog

STARLINK-33924

AliveCommunicationsSSO
NORAD 64149·PAYLOAD·🇺🇸 United States

Launched May 27, 2025 from Vandenberg Space Force Base

Loading…

Next Passes (next 24 hours)

TLE

FreshSource: CelesTrak SupGP

Epoch: Sep 14, 2026, 22:27 UTC

1 64149C 25112D   26257.93590278  .00027185  00000+0  84408-3 0  2576
2 64149  97.2837 305.0559 0001248  91.5658 277.3945 15.33418495    19

Track STARLINK-33924 in real time with AllMySat

Download on the App Store